Location: Broletto
(44.6000°N, 10.5833°E)
Time: 07:11:19
(UTC+00:00)

Cosmos 2219 Rocket - Pass Details

Date: 18 April 2021
Orbit: 826 x 848 km, 71.0° (Epoch: 05 May)

Event Time Altitude Azimuth Distance (km) Brightness Sun altitude
Rises 19:08:03 0° 335° (NNW) 3,420 6.3 -11.0°
Reaches altitude 10° 19:10:31 10° 337° (NNW) 2,482 5.5 -11.4°
Maximum altitude 19:16:14 78° 64° (ENE) 871 2.2 -12.3°
Enters shadow 19:21:16 14° 150° (SSE) 2,219 3.9 -13.0°
